Find Starlink 3054

NORAD ID: 49167 Int'l Des: 2021-082 Owner: SPXS Country: US Constellation: starlink operational
LEOCIRCULAR

Current View

Loading 3D Globe...

About Starlink 3054

Description loading...

Upcoming Passes

Passes for default location (London). Set your location on the main map for personalized predictions.

Altitude History

Loading altitude history...

Two-Line Element Set

1 49167U 21082AP 26149.24317426 -.00003049 00000-0 -24786-3 0 9999
2 49167 70.0005 91.3466 0003022 267.1397 92.9417 14.98325139259241
Epoch: May 29, 2026 • Age: 23 hours

Current Status

Altitude 583.2 km
Velocity 7.57 km/s
Sub-Earth Point -34.68°S, 42.84°W
Launch Date Sep 14, 2021
Age 4.7 years
Type internet

Technical Details

Classification Payload
Mass 297.00 kg
Dry Mass 275.00 kg
Total Mass 297.00 kg
Length 0.20 m
Diameter 2.80 m
Span 9.00 m
Shape Box + pan
Manufacturer SPXS
Bus Type Starlink
Phase Status In Orbit
Owner/State SPXS/US

Most Searched